This is the latest recevied weather packets stored in our database for station/object EA7JCM-13. If no packets are shown the sender has not sent any weather packets the latest 10 day(s).
| Time | Temp. | Humidity | Pressure | Rain* | Wind** | Luminosity | Snow |
|---|---|---|---|---|---|---|---|
| 1777455302 | 16.67° C | 88% | 1007.6 hPa | 0 mm | - | - | - |
| 1777455003 | 16.67° C | 88% | 1007.5 hPa | 0 mm | - | - | - |
| 1777454702 | 16.67° C | 87% | 1007.6 hPa | 0 mm | - | - | - |
| 1777454403 | 17.22° C | 87% | 1007.3 hPa | 0 mm | - | - | - |
| 1777454102 | 17.22° C | 86% | 1007.5 hPa | 0 mm | - | - | - |
| 1777453802 | 17.22° C | 86% | 1007.4 hPa | 0 mm | - | - | - |
| 1777453502 | 17.78° C | 84% | 1007.5 hPa | 0 mm | - | - | - |
| 1777453203 | 17.78° C | 85% | 1007.2 hPa | 0 mm | - | - | - |
| 1777452902 | 17.22° C | 86% | 1007 hPa | 0 mm | - | - | - |
| 1777452603 | 17.78° C | 85% | 1007 hPa | 0 mm | - | - | - |
| 1777452302 | 17.22° C | 86% | 1007.2 hPa | 0 mm | - | - | - |
| 1777452002 | 17.22° C | 87% | 1007.2 hPa | 0 mm | - | - | - |
| 1777451702 | 16.11° C | 88% | 1007 hPa | 0 mm | - | - | - |
| 1777451402 | 16.67° C | 88% | 1007.3 hPa | 0 mm | - | - | - |
| 1777451102 | 16.11° C | 88% | 1007.2 hPa | 0 mm | - | - | - |
| 1777450802 | 16.11° C | 88% | 1007.4 hPa | 0 mm | - | - | - |
| 1777450502 | 16.67° C | 87% | 1007.2 hPa | 0 mm | - | - | - |
| 1777450202 | 16.67° C | 87% | 1007.4 hPa | 0 mm | - | - | - |
| 1777449902 | 16.11° C | 87% | 1007 hPa | 0 mm | - | - | - |
| 1777449602 | 16.11° C | 87% | 1007.2 hPa | 0 mm | - | - | - |
| 1777449303 | 16.11° C | 88% | 1007.2 hPa | 0 mm | - | - | - |
| 1777449002 | 16.11° C | 87% | 1007.2 hPa | 0 mm | - | - | - |
| 1777448702 | 16.11° C | 88% | 1007.2 hPa | 0 mm | - | - | - |
| 1777448403 | 15.56° C | 89% | 1007.4 hPa | 0 mm | - | - | - |
| 1777448102 | 15.56° C | 89% | 1007.3 hPa | 0 mm | - | - | - |
* Rain latest hour (hover to see other rain measurements)
** Current wind speed in m/s (hover to see current wind gust speed)